STARLINK-35629, 66127

Orbit data source: Space-Track

STARLINK-35629, 66127 is a payload satellite owned by SpaceX/Seattle (US) in LEO that was launched on Wed, 22 Oct 2025 UTC via an FALCON 9 launch vehicle from the Air Force Western Test Range (AFWTR). Payload-class satellites include a variety of spacecraft equipped with specific instruments for various scientific and technological missions. These include communications satellites like Starlink; space stations such as the ISS; scientific satellites like the Hubble; Earth observation satellites from companies like Planet Labs, Umbra, and HawkEye 360; GPS; miniature CubeSats for education and research; and military/defense satellites.

Loading next visibility...
Identifier
66127, 2025-237P
Orbit
LEO
Country
Flag of USUS
Related business
Manufacturer
SpaceX/Seattle
Mission
Operational Commercial Communications
Bus & Motor
STARLINK V2MO, Unknown motor
Mass
575 kg wet, ~530 kg dry
Launch date (UTC)
2025-10-22 (8 months ago)
Launch vehicle
FALCON 9
Launch site
Air Force Western Test Range (AFWTR)
Object type
Payload
Rocket body
Debris
Shape & HBR
Box + 2 Pan, 17.7 m
Radar Cross Section
36.964 m², Large (>1 m²)

Expand to show TLE details & history
Last TLE update: 1 day ago

TLE from 1 day ago
0 STARLINK-35629
1 66127U 25237P   26170.69239524  .00027104  00000-0  92440-3 0  9993
2 66127  53.1595 286.1092 0001041 102.2781 257.8337 15.30183063 38227
Epoch: 2026-06-19T16:37Z
TLE epoch observation values (Epoch: 2026-06-19T16:37:02.948Z)
Latitude
0.00002°
Longitude
128.92921°
Altitude
476.316 km
Speed
7.629 km/s
True Right ascension
19h 04m 26s
True Declination
0° 00' 00"
Sunlit
Object was in full shadow at epoch
Visualization orbit readout
Latitude
Unknown
Longitude
Unknown
Altitude
Unknown
Speed
Unknown
Apparent Right ascension
Unknown
Apparent Declination
Unknown
Sunlit
N/A
Visualization observer readout
Local Sidereal Time
08:42:27
Azimuth
Unknown
Elevation
Unknown
Doppler factor
Unknown
Orbital elements
Apogee altitude
476.236 km
Perigee altitude
474.809 km
Semi-major axis
6,853.659 km
Eccentricity
0.0001
Inclination
53.1595°
RAAN
286.1092°
Arg. of periapsis
102.2781°
True anomaly
257.82204°
Mean anomaly
257.8337°
Eccentric anomaly
257.82787°
Mean motion
3.82525 °/min
Orbital period
94.11 mins
BSTAR
0.0009244
Loading maneuver chart data...
Computing Atmospheric mass density...
Loading historical data...
Loading historical data...
Loading historical data...
Loading historical data...
Loading historical data...
Loading historical data...
Loading historical data...

Documentation

Showing up to 5 results
|